PAL113S RPLL-RPVM

Flight info

Callsign PAL113S
Flight time N/A
Altitude 25000
Route IPATA2R IPATA W25 BATAY BATAY3P
Aircraft A388/J-SADE2E3FGHIJ3J4J5M1RWXY/LB1D1

Departure

Time 2026-05-05 14:37
Airport Ninoy Aquino International Airport (RPLL)

Arrival

Time N/A
Airport Mactan Cebu International Airport (RPVM)
Time Latitude Longitude Altitude Speed Heading
2026-05-05 13:43 14.51701 121.01461 74 ft 0 kts 44°
2026-05-05 14:16 14.51701 121.01460 74 ft 1 kts 44°
2026-05-05 14:16 14.51684 121.01443 59 ft 4 kts 45°
2026-05-05 14:17 14.51665 121.01423 63 ft 3 kts 45°
2026-05-05 14:17 14.51652 121.01406 63 ft 4 kts 86°
2026-05-05 14:17 14.51659 121.01383 63 ft 4 kts 127°
2026-05-05 14:17 14.51675 121.01364 63 ft 1 kts 135°
2026-05-05 14:18 14.51678 121.01360 63 ft 1 kts 135°
2026-05-05 14:22 14.51678 121.01361 63 ft 1 kts 135°
2026-05-05 14:23 14.51636 121.01405 63 ft 13 kts 135°
2026-05-05 14:23 14.51565 121.01476 65 ft 15 kts 135°
2026-05-05 14:23 14.51488 121.01556 66 ft 16 kts 134°
2026-05-05 14:23 14.51406 121.01642 66 ft 17 kts 134°
2026-05-05 14:24 14.51319 121.01734 63 ft 18 kts 134°
2026-05-05 14:24 14.51230 121.01827 63 ft 17 kts 135°
2026-05-05 14:24 14.51168 121.01888 66 ft 0 kts 136°
2026-05-05 14:25 14.51165 121.01892 63 ft 4 kts 136°
2026-05-05 14:25 14.51137 121.01919 63 ft 5 kts 135°
2026-05-05 14:25 14.51135 121.01922 63 ft 0 kts 135°
2026-05-05 14:28 14.51134 121.01922 63 ft 2 kts 135°
2026-05-05 14:28 14.51071 121.01976 65 ft 7 kts 166°
2026-05-05 14:29 14.51035 121.01962 71 ft 8 kts 219°
2026-05-05 14:29 14.50987 121.01894 72 ft 14 kts 243°
2026-05-05 14:29 14.50934 121.01794 69 ft 19 kts 239°
2026-05-05 14:29 14.50858 121.01664 65 ft 23 kts 239°
2026-05-05 14:30 14.50770 121.01515 63 ft 25 kts 240°
2026-05-05 14:30 14.50690 121.01353 66 ft 21 kts 241°
2026-05-05 14:30 14.50620 121.01225 71 ft 22 kts 240°
2026-05-05 14:30 14.50538 121.01079 65 ft 25 kts 239°
2026-05-05 14:31 14.50447 121.00918 68 ft 27 kts 239°
2026-05-05 14:31 14.50348 121.00746 65 ft 29 kts 239°
2026-05-05 14:31 14.50247 121.00565 64 ft 30 kts 241°
2026-05-05 14:31 14.50144 121.00377 64 ft 30 kts 240°
2026-05-05 14:32 14.50040 121.00189 70 ft 31 kts 241°
2026-05-05 14:32 14.49975 121.00069 66 ft 0 kts 240°
2026-05-05 14:32 14.49971 121.00062 67 ft 11 kts 240°
2026-05-05 14:32 14.49920 120.99984 65 ft 0 kts 218°
2026-05-05 14:33 14.49914 120.99979 69 ft 0 kts 205°
2026-05-05 14:34 14.49913 120.99979 69 ft 2 kts 205°
2026-05-05 14:34 14.49862 120.99979 69 ft 9 kts 153°
2026-05-05 14:34 14.49815 121.00016 70 ft 10 kts 116°
2026-05-05 14:34 14.49821 121.00070 67 ft 9 kts 65°
2026-05-05 14:35 14.49851 121.00125 66 ft 11 kts 60°
2026-05-05 14:35 14.49895 121.00205 65 ft 12 kts 60°
2026-05-05 14:35 14.49898 121.00210 66 ft 0 kts 60°
2026-05-05 14:36 14.49919 121.00248 62 ft 34 kts 60°
2026-05-05 14:36 14.50192 121.00743 69 ft 123 kts 60°
2026-05-05 14:36 14.50715 121.01672 208 ft 168 kts 61°
2026-05-05 14:37 14.51356 121.02726 731 ft 182 kts 60°
2026-05-05 14:37 14.52069 121.03903 1135 ft 201 kts 57°
2026-05-05 14:37 14.52885 121.05178 1575 ft 229 kts 57°
2026-05-05 14:37 14.53804 121.06635 1965 ft 258 kts 57°
2026-05-05 14:38 14.54801 121.08202 2363 ft 283 kts 57°
2026-05-05 14:38 14.55941 121.09999 2745 ft 301 kts 57°
2026-05-05 14:38 14.57077 121.11776 3128 ft 306 kts 57°
2026-05-05 14:38 14.58256 121.13585 3497 ft 310 kts 57°
2026-05-05 14:39 14.59439 121.15397 3882 ft 316 kts 57°
2026-05-05 14:39 14.60700 121.17343 4280 ft 317 kts 57°
2026-05-05 14:39 14.61942 121.19237 4677 ft 321 kts 57°
2026-05-05 14:39 14.63202 121.21162 4926 ft 331 kts 57°
2026-05-05 14:40 14.64508 121.23160 5597 ft 336 kts 57°
2026-05-05 14:40 14.65809 121.25158 6347 ft 341 kts 57°
2026-05-05 14:40 14.67077 121.27253 7082 ft 342 kts 66°
2026-05-05 14:40 14.67660 121.29621 7856 ft 344 kts 87°
2026-05-05 14:41 14.67391 121.32000 8639 ft 347 kts 106°
2026-05-05 14:41 14.66267 121.34262 9406 ft 354 kts 127°
2026-05-05 14:41 14.64463 121.35971 10163 ft 360 kts 146°
2026-05-05 14:41 14.62181 121.37142 10859 ft 366 kts 155°
2026-05-05 14:42 14.59827 121.38168 11571 ft 369 kts 155°
2026-05-05 14:42 14.57490 121.39288 12323 ft 372 kts 152°
2026-05-05 14:42 14.55193 121.40517 13042 ft 376 kts 150°
2026-05-05 14:42 14.52907 121.41828 13759 ft 380 kts 149°
2026-05-05 14:43 14.50653 121.43166 14358 ft 383 kts 149°
2026-05-05 14:43 14.48347 121.44548 14935 ft 388 kts 149°
2026-05-05 14:43 14.46149 121.45865 15476 ft 391 kts 149°
2026-05-05 14:43 14.43785 121.47279 16054 ft 394 kts 149°
2026-05-05 14:44 14.41397 121.48707 16604 ft 398 kts 149°
2026-05-05 14:44 14.38988 121.50144 17114 ft 403 kts 149°
2026-05-05 14:44 14.36551 121.51599 17635 ft 406 kts 149°
2026-05-05 14:44 14.34097 121.53063 18162 ft 409 kts 149°
2026-05-05 14:45 14.31646 121.54524 18595 ft 413 kts 149°
2026-05-05 14:45 14.29154 121.56010 19072 ft 414 kts 149°
2026-05-05 14:45 14.26653 121.57501 19517 ft 417 kts 150°
2026-05-05 14:45 14.24134 121.59002 19957 ft 419 kts 150°
2026-05-05 14:46 14.21600 121.60512 20381 ft 422 kts 150°
2026-05-05 14:46 14.19057 121.62027 20787 ft 425 kts 150°
2026-05-05 14:46 14.16487 121.63557 21213 ft 427 kts 150°
2026-05-05 14:46 14.13908 121.65092 21650 ft 429 kts 150°
2026-05-05 14:47 14.11314 121.66637 22030 ft 432 kts 150°
2026-05-05 14:47 14.08700 121.68192 22436 ft 435 kts 150°
2026-05-05 14:47 14.06074 121.69754 22819 ft 438 kts 150°
2026-05-05 14:47 14.03453 121.71312 23218 ft 441 kts 150°
2026-05-05 14:48 14.00790 121.72895 23583 ft 444 kts 150°
2026-05-05 14:48 13.98109 121.74489 23928 ft 446 kts 150°
2026-05-05 14:48 13.95414 121.76090 24306 ft 447 kts 150°
2026-05-05 14:48 13.92709 121.77697 24642 ft 450 kts 150°
2026-05-05 14:49 13.89991 121.79311 24965 ft 453 kts 150°
2026-05-05 14:49 13.87251 121.80945 25034 ft 458 kts 149°
2026-05-05 14:49 13.84649 121.82771 25035 ft 457 kts 144°
2026-05-05 14:49 13.82126 121.84697 25032 ft 454 kts 144°
2026-05-05 14:50 13.79585 121.86622 25031 ft 454 kts 144°
2026-05-05 14:50 13.77037 121.88546 25031 ft 454 kts 144°
2026-05-05 14:50 13.74488 121.90468 25033 ft 455 kts 144°
2026-05-05 14:50 13.71936 121.92392 25031 ft 455 kts 144°
2026-05-05 14:51 13.69382 121.94318 25034 ft 455 kts 144°
2026-05-05 14:51 13.66834 121.96239 25032 ft 455 kts 144°
2026-05-05 14:51 13.64279 121.98164 25033 ft 456 kts 144°
2026-05-05 14:51 13.61720 122.00093 25032 ft 455 kts 144°
2026-05-05 14:52 13.59168 122.02015 25035 ft 455 kts 144°
2026-05-05 14:52 13.56612 122.03940 25031 ft 456 kts 144°
2026-05-05 14:52 13.54055 122.05865 25036 ft 456 kts 144°
2026-05-05 14:52 13.51496 122.07791 25035 ft 456 kts 144°
2026-05-05 14:53 13.48946 122.09710 25036 ft 456 kts 144°
2026-05-05 14:53 13.46375 122.11644 25034 ft 456 kts 144°
2026-05-05 14:53 13.43819 122.13567 25032 ft 456 kts 144°
2026-05-05 14:53 13.41333 122.15436 25036 ft 457 kts 144°
2026-05-05 14:54 13.38696 122.17417 25034 ft 457 kts 144°
2026-05-05 14:54 13.36133 122.19344 25030 ft 456 kts 144°
2026-05-05 14:54 13.33576 122.21265 25031 ft 456 kts 144°
2026-05-05 14:54 13.31020 122.23185 25030 ft 456 kts 144°
2026-05-05 14:55 13.28460 122.25107 25025 ft 455 kts 144°
2026-05-05 14:55 13.25902 122.27027 25030 ft 456 kts 144°
2026-05-05 14:55 13.23345 122.28946 25025 ft 455 kts 144°
2026-05-05 14:55 13.20787 122.30865 25028 ft 455 kts 144°
2026-05-05 14:56 13.18233 122.32781 25028 ft 455 kts 144°
2026-05-05 14:56 13.15681 122.34695 25029 ft 455 kts 144°
2026-05-05 14:56 13.13150 122.36592 25029 ft 456 kts 144°
2026-05-05 14:56 13.10646 122.38468 25028 ft 455 kts 144°
2026-05-05 14:57 13.08091 122.40383 25024 ft 455 kts 144°
2026-05-05 14:57 13.05534 122.42298 25027 ft 454 kts 144°
2026-05-05 14:57 13.02982 122.44210 25028 ft 454 kts 144°
2026-05-05 14:57 13.00433 122.46118 25028 ft 454 kts 144°
2026-05-05 14:58 12.97884 122.48026 25027 ft 454 kts 144°
2026-05-05 14:58 12.95334 122.49934 25023 ft 454 kts 144°
2026-05-05 14:58 12.92789 122.51838 25024 ft 453 kts 144°
2026-05-05 14:58 12.90240 122.53744 25025 ft 453 kts 144°
2026-05-05 14:59 12.87695 122.55647 25024 ft 452 kts 144°
2026-05-05 14:59 12.85154 122.57546 25024 ft 452 kts 144°
2026-05-05 14:59 12.82648 122.59419 25023 ft 453 kts 144°
2026-05-05 14:59 12.80102 122.61321 25025 ft 453 kts 144°
2026-05-05 15:00 12.77549 122.63229 25020 ft 454 kts 144°
2026-05-05 15:00 12.75862 122.64488 25022 ft 451 kts 144°
2026-05-05 15:00 12.72529 122.66977 25023 ft 451 kts 144°
2026-05-05 15:00 12.70004 122.68862 25023 ft 452 kts 144°
2026-05-05 15:01 12.67466 122.70756 25020 ft 451 kts 144°
2026-05-05 15:01 12.64932 122.72646 25018 ft 450 kts 144°
2026-05-05 15:01 12.62453 122.74495 25023 ft 449 kts 144°
2026-05-05 15:01 12.59935 122.76372 25025 ft 449 kts 144°
2026-05-05 15:02 12.57402 122.78260 25025 ft 452 kts 144°
2026-05-05 15:02 12.54856 122.80158 25028 ft 452 kts 144°
2026-05-05 15:02 12.52315 122.82052 25025 ft 451 kts 144°
2026-05-05 15:02 12.49784 122.83937 25020 ft 449 kts 144°
2026-05-05 15:03 12.47261 122.85815 25020 ft 450 kts 144°
2026-05-05 15:03 12.44723 122.87705 25021 ft 450 kts 144°
2026-05-05 15:03 12.42192 122.89589 25017 ft 451 kts 144°
2026-05-05 15:03 12.39673 122.91463 25017 ft 451 kts 144°
2026-05-05 15:04 12.37110 122.93371 25018 ft 451 kts 144°
2026-05-05 15:04 12.34573 122.95258 25022 ft 452 kts 144°
2026-05-05 15:04 12.32029 122.97150 25018 ft 452 kts 144°
2026-05-05 15:04 12.29488 122.99039 25021 ft 452 kts 143°
2026-05-05 15:05 12.24398 123.02821 25017 ft 452 kts 143°
2026-05-05 15:05 12.21853 123.04712 25016 ft 452 kts 143°
2026-05-05 15:05 12.19308 123.06602 25014 ft 452 kts 143°
2026-05-05 15:06 12.16766 123.08489 25015 ft 452 kts 143°
2026-05-05 15:06 12.14213 123.10385 25011 ft 452 kts 143°
2026-05-05 15:06 12.11687 123.12260 25009 ft 452 kts 143°
2026-05-05 15:06 12.09146 123.14145 25011 ft 452 kts 143°
2026-05-05 15:07 12.06601 123.16033 25009 ft 452 kts 143°
2026-05-05 15:07 12.04056 123.17920 25010 ft 452 kts 143°
2026-05-05 15:07 12.01513 123.19806 25008 ft 452 kts 143°
2026-05-05 15:07 11.98968 123.21693 25006 ft 452 kts 143°
2026-05-05 15:08 11.96430 123.23574 25007 ft 451 kts 143°
2026-05-05 15:08 11.93886 123.25458 25004 ft 451 kts 143°
2026-05-05 15:08 11.91322 123.27358 25002 ft 451 kts 143°
2026-05-05 15:08 11.88818 123.29212 24998 ft 450 kts 143°
2026-05-05 15:09 11.86286 123.31087 25000 ft 450 kts 143°
2026-05-05 15:09 11.83745 123.32968 25005 ft 450 kts 143°
2026-05-05 15:09 11.81208 123.34846 25001 ft 450 kts 143°
2026-05-05 15:09 11.78674 123.36720 25000 ft 450 kts 143°
2026-05-05 15:10 11.76957 123.37991 24999 ft 450 kts 143°
2026-05-05 15:10 11.74422 123.39866 24999 ft 450 kts 143°
2026-05-05 15:10 11.71066 123.42347 24998 ft 450 kts 143°
2026-05-05 15:10 11.68528 123.44224 24995 ft 450 kts 143°
2026-05-05 15:11 11.65994 123.46097 24990 ft 450 kts 143°
2026-05-05 15:11 11.63458 123.47970 24989 ft 451 kts 143°
2026-05-05 15:11 11.60920 123.49845 24993 ft 451 kts 143°
2026-05-05 15:11 11.58380 123.51721 24995 ft 450 kts 143°
2026-05-05 15:12 11.56698 123.52963 24991 ft 450 kts 143°
2026-05-05 15:12 11.54162 123.54835 24989 ft 450 kts 143°
2026-05-05 15:12 11.51624 123.56708 24989 ft 450 kts 143°
2026-05-05 15:12 11.48235 123.59209 24990 ft 450 kts 143°
2026-05-05 15:13 11.45694 123.61083 24990 ft 450 kts 143°
2026-05-05 15:13 11.44016 123.62321 24986 ft 451 kts 143°
2026-05-05 15:13 11.41473 123.64196 24983 ft 451 kts 143°
2026-05-05 15:13 11.38933 123.66069 24987 ft 451 kts 143°
2026-05-05 15:14 11.36544 123.67830 24983 ft 451 kts 143°
2026-05-05 15:14 11.34002 123.69703 24982 ft 450 kts 143°
2026-05-05 15:14 11.31461 123.71575 24979 ft 451 kts 143°
2026-05-05 15:14 11.28919 123.73448 24980 ft 451 kts 143°
2026-05-05 15:15 11.26374 123.75322 24978 ft 451 kts 143°
2026-05-05 15:15 11.23828 123.77196 24978 ft 451 kts 143°
2026-05-05 15:15 11.21267 123.79082 24977 ft 452 kts 143°
2026-05-05 15:15 11.18739 123.80935 24980 ft 451 kts 145°
2026-05-05 15:16 11.15983 123.82478 24976 ft 453 kts 156°
2026-05-05 15:16 11.12996 123.83388 24973 ft 454 kts 168°
2026-05-05 15:16 11.09843 123.83645 24974 ft 456 kts 180°
2026-05-05 15:16 11.06700 123.83223 24973 ft 458 kts 192°
2026-05-05 15:17 11.03691 123.82267 24971 ft 460 kts 198°
2026-05-05 15:17 11.00680 123.81173 24973 ft 460 kts 198°
2026-05-05 15:17 10.97657 123.80142 24970 ft 453 kts 196°
2026-05-05 15:17 10.94710 123.79222 24972 ft 432 kts 195°
2026-05-05 15:18 10.91888 123.78394 24956 ft 413 kts 194°
2026-05-05 15:18 10.89186 123.77628 24844 ft 399 kts 194°
2026-05-05 15:18 10.86590 123.76903 24731 ft 386 kts 193°
2026-05-05 15:18 10.83979 123.76177 24609 ft 374 kts 193°
2026-05-05 15:19 10.81488 123.75484 24280 ft 369 kts 193°
2026-05-05 15:19 10.79014 123.74797 23888 ft 368 kts 193°
2026-05-05 15:19 10.76548 123.74110 23509 ft 366 kts 193°
2026-05-05 15:19 10.74097 123.73428 23081 ft 364 kts 193°
2026-05-05 15:20 10.71659 123.72749 22666 ft 362 kts 193°
2026-05-05 15:20 10.69238 123.72075 22250 ft 360 kts 193°
2026-05-05 15:20 10.66826 123.71403 21817 ft 358 kts 193°
2026-05-05 15:20 10.64434 123.70737 21434 ft 356 kts 193°
2026-05-05 15:21 10.62055 123.70074 21029 ft 354 kts 193°
2026-05-05 15:21 10.59717 123.69423 20639 ft 352 kts 193°
2026-05-05 15:21 10.57332 123.68759 20245 ft 350 kts 193°
2026-05-05 15:21 10.55020 123.68115 19862 ft 348 kts 193°
2026-05-05 15:22 10.52687 123.67465 19476 ft 347 kts 193°
2026-05-05 15:22 10.50368 123.66820 19104 ft 345 kts 193°
2026-05-05 15:22 10.48063 123.66178 18737 ft 343 kts 193°
2026-05-05 15:22 10.45743 123.65533 18368 ft 341 kts 193°
2026-05-05 15:23 10.43483 123.64904 18090 ft 336 kts 193°
2026-05-05 15:23 10.41266 123.64286 17984 ft 325 kts 193°
2026-05-05 15:23 10.39117 123.63687 17897 ft 314 kts 193°
2026-05-05 15:23 10.37044 123.63110 17808 ft 304 kts 193°
2026-05-05 15:24 10.35023 123.62547 17728 ft 295 kts 193°
2026-05-05 15:24 10.33131 123.61949 17634 ft 287 kts 204°
2026-05-05 15:24 10.31579 123.60728 17547 ft 280 kts 231°
2026-05-05 15:24 10.30746 123.58990 17470 ft 272 kts 258°
2026-05-05 15:25 10.30779 123.57122 17389 ft 261 kts 287°
2026-05-05 15:25 10.31629 123.55560 17277 ft 249 kts 316°
2026-05-05 15:25 10.33064 123.54615 16867 ft 249 kts 345°
2026-05-05 15:25 10.34775 123.54491 16349 ft 251 kts 14°
2026-05-05 15:26 10.36339 123.55181 15491 ft 246 kts 37°
2026-05-05 15:26 10.37789 123.56184 14274 ft 260 kts 32°
2026-05-05 15:26 10.39428 123.57011 13227 ft 261 kts 24°
2026-05-05 15:26 10.41117 123.57636 12272 ft 256 kts 19°
2026-05-05 15:27 10.42801 123.58163 11330 ft 249 kts 21°
2026-05-05 15:27 10.44218 123.59115 10374 ft 244 kts 50°
2026-05-05 15:27 10.44960 123.60593 9471 ft 238 kts 78°
2026-05-05 15:27 10.44860 123.62245 8600 ft 235 kts 110°
2026-05-05 15:28 10.43900 123.63565 8176 ft 237 kts 141°
2026-05-05 15:28 10.42379 123.64195 8037 ft 242 kts 169°
2026-05-05 15:28 10.40692 123.64327 7963 ft 241 kts 176°
2026-05-05 15:28 10.39028 123.64353 7592 ft 238 kts 178°
2026-05-05 15:29 10.37425 123.64622 6887 ft 234 kts 154°
2026-05-05 15:29 10.36103 123.65551 6322 ft 231 kts 140°
2026-05-05 15:29 10.34854 123.66565 6069 ft 231 kts 140°
2026-05-05 15:29 10.33587 123.67581 5983 ft 232 kts 140°
2026-05-05 15:30 10.32314 123.68591 6004 ft 232 kts 140°
2026-05-05 15:30 10.31037 123.69599 5990 ft 232 kts 140°
2026-05-05 15:30 10.29759 123.70609 5995 ft 233 kts 140°
2026-05-05 15:30 10.28482 123.71618 5991 ft 233 kts 140°
2026-05-05 15:31 10.27205 123.72626 6001 ft 233 kts 140°
2026-05-05 15:31 10.25936 123.73626 5973 ft 230 kts 140°
2026-05-05 15:31 10.24706 123.74596 5616 ft 227 kts 140°
2026-05-05 15:31 10.23471 123.75571 5017 ft 224 kts 140°
2026-05-05 15:32 10.22236 123.76545 4327 ft 223 kts 140°
2026-05-05 15:32 10.21028 123.77497 3552 ft 218 kts 140°
2026-05-05 15:32 10.19828 123.78442 3169 ft 219 kts 140°
2026-05-05 15:32 10.18621 123.79396 3022 ft 220 kts 140°
2026-05-05 15:33 10.17407 123.80355 2996 ft 222 kts 140°
2026-05-05 15:33 10.16344 123.81460 2993 ft 219 kts 117°
2026-05-05 15:33 10.16010 123.82931 3002 ft 216 kts 85°
2026-05-05 15:33 10.16516 123.84299 2999 ft 201 kts 53°
2026-05-05 15:34 10.17475 123.85230 3011 ft 187 kts 39°
2026-05-05 15:34 10.18492 123.85998 3001 ft 183 kts 38°
2026-05-05 15:34 10.19487 123.86802 3002 ft 182 kts 46°
2026-05-05 15:34 10.20375 123.87690 2994 ft 179 kts 50°
2026-05-05 15:35 10.21207 123.88516 2656 ft 155 kts 44°
2026-05-05 15:35 10.21938 123.89182 2495 ft 127 kts 43°
2026-05-05 15:35 10.22544 123.89803 2136 ft 124 kts 50°
2026-05-05 15:35 10.23117 123.90485 1708 ft 126 kts 52°
2026-05-05 15:36 10.23637 123.91146 1353 ft 121 kts 51°
2026-05-05 15:36 10.24253 123.91761 908 ft 127 kts 42°
2026-05-05 15:36 10.24905 123.92320 606 ft 119 kts 39°